Regional Weather Roundup
Issued by NWS

Home | Current Version | Previous Version | Graphics & Text | Print | Product List | Glossary On
Versions: 1 2 3 4 5 6 7 8 9 10 11 12 13 14 15 16 17 18 19 20 21 22 23 24 25 26 27 28 29 30 31 32 33 34 35 36 37 38 39 40 41 42 43 44 45 46 47 48 49 50
000
ASUS43 KTOP 250059
RWRKS

WEATHER ROUNDUP FOR KANSAS
NATIONAL WEATHER SERVICE GOODLAND KS
700 PM CST FRI FEB 24 2017

NOTE:  "FAIR" INDICATES FEW OR NO CLOUDS BELOW 12,000 FEET WITH NO
SIGNIFICANT WEATHER AND/OR OBSTRUCTIONS TO VISIBILITY.

KSZ001>006-013>018-027>032-041>047-250200-
NORTHWEST KANSAS

CITY           SKY/WX    TMP DP  RH WIND       PRES   REMARKS
GOODLAND       CLEAR     21  16  81 NW8       30.05R
HAYS           MOCLDY    28  15  58 N16       30.10R WCI  16
HILL CITY      CLOUDY    27  15  61 N10       30.11R WCI  17
RUSSELL        CLOUDY    26  16  65 N15G25    30.09R WCI  14
$$

KSZ061>065-074>080-084>089-250200-
SOUTHWEST KANSAS

CITY           SKY/WX    TMP DP  RH WIND       PRES   REMARKS
DODGE CITY     MOCLDY    31  17  56 N7        30.06R
ELKHART          N/A     32  10  40 N7          N/A
GARDEN CITY    PTCLDY    29  16  58 N12       30.06R WCI  19
GREAT BEND     CLEAR     27  16  63 N17       30.08R WCI  14
LIBERAL        CLEAR     34  10  37 N8        30.07R
$$

KSZ066>073-081>083-090>101-250200-
SOUTHEAST KANSAS

CITY           SKY/WX    TMP DP  RH WIND       PRES   REMARKS
CHANUTE        CLOUDY    33  20  58 NW22      30.01R WCI  21
COFFEYVILLE    MOCLDY    34  20  56 NW18G31   30.03R WCI  23
HUTCHINSON     PTCLDY    28  16  60 N18       30.07R WCI  15
MEDICINE LODGE   N/A     32  19  58 NW7       30.06R
NEWTON         CLEAR     27  18  69 NW18G25   30.05R WCI  14
PARSONS        CLOUDY    33  19  56 NW20G29   30.03R WCI  21
WICHITA INTL   PTCLDY    32  19  58 N18G31    30.05R WCI  20
WICHITA JABRA  PTCLDY    30  20  66 N18G25    30.04R WCI  18
WINFIELD       CLEAR     32  22  66 N13       30.06R WCI  22
$$

KSZ007>012-019>026-033>040-048>060-102>105-250200-
NORTHEAST KANSAS

CITY           SKY/WX    TMP DP  RH WIND       PRES   REMARKS
CONCORDIA      CLOUDY    25  17  72 NW16      30.08R WCI  12
EMPORIA        CLOUDY    29  21  72 NW16G25   30.02R WCI  17
LAWRENCE       CLOUDY    28  21  75 NW24G30   29.99R WCI  14
MANHATTAN      CLOUDY    28  20  71 NW9       30.06R
OLATHE IND     CLOUDY    28  19  69 NW24      29.97R WCI  14
OLATHE EXE     CLOUDY    28  20  71 NW16G28   29.95R WCI  16
SALINA         MOCLDY    29  17  61 NW21G28   30.09R WCI  16
TOPEKA BILLARD LGT SNOW  27  24  89 NW12G22   30.01R FOG     WCI  17
TOPEKA FORBES  CLOUDY    28  22  78 NW20G25   30.00R HAZE    WCI  15
$$




USA.gov is the U.S. government's official web portal to all federal, state and local government web resources and services.